"Pseudo-MPEC" for A10nE6q

Created 2020 Jul 2 22:07:02 UT using Find_Orb

Click here for an explanation of pseudo-MPECs

 
 Astrometry: 
     A10nE6q  C2020 06 27.46059420 01 56.78 -31 48 45.3    ~6RFq 17.59oVNEOCPT08
     A10nE6q  C2020 06 27.46244 20 01 58.95 -31 50 23.1    ~6RJb 17.9 oVNEOCPT08
     A10nE6q  C2020 06 27.46520 20 02 02.17 -31 52 51.6    ~6RJb 18.1 oVNEOCPT08
     A10nE6q  C2020 06 27.46704 20 02 04.43 -31 54 32.0    ~6RJb 18.0 oVNEOCPT08
     A10nE6q  C2020 06 27.47026020 02 08.12 -31 57 23.8    ~6RFq 17.42oVNEOCPT08
     A10nE6q  C2020 06 27.47256220 02 10.70 -31 59 25.8    ~6RFq 17.80oVNEOCPT08
     A10nE6q  C2020 06 27.47302 20 02 11.28 -31 59 51.2    ~6RJb 18.0 oVNEOCPT08
     A10nE6q  C2020 06 27.47818220 02 17.29 -32 04 26.7    ~6RFq 17.95oVNEOCPT08

Station data:
(T08) ATLAS-MLO, Mauna Loa  (N19.536152 W155.576050)  US/Hawaii.  Observers
   L. Denneau, A. Heinze, H. Weiland, J. Tonry, H. Flewelling, A.
   Fitzsimmons, D. Young, B. Stalder. Measurers L. Denneau, A. Heinze, J.
   Tonry. 0.5-m f/2.0 Schmidt + CCD.

Orbital elements:  A10nE6q
   Perihelion 2020 Jul 26.380076 +/- 47.2 TT =  9:07:18 (JD 2459056.880076)
Epoch 2020 Jun 27.0 TT = JDT 2459027.5   Earth MOID: 0.0094   AutoNEOCP
M 334.11822978 +/- 40               (J2000 ecliptic)
n   0.88092931 +/- 0.197            Peri.  208.97667 +/- 53
a   1.07772678 +/- 0.16             Node    95.50632 +/- 0.14
e   0.0540095 +/- 0.117             Incl.    8.84950 +/- 6
P   1.12/408.65d           H 26.8   G  0.15   U 11.6  SR
q 1.01951928 +/- 0.0699    Q 1.13593427 +/- 0.467
From 8 observations 2020 June 27 (25.3 min); mean residual 0".63
Residuals in arcseconds: 
200627 T08  .45-  .40-    200627 T08  1.3+  1.2-    200627 T08  .14-  .20-    
200627 T08  .23-  .93+    200627 T08  .54+  .51-    200627 T08  .10-  .15+    
200627 T08  .19-  .54+    200627 T08  .73-  .70+    

Ephemerides (geocentric):
Date (UTC) HH   RA              Dec         delta   r     elong  mag " sig PA
---- -- -- --  -------------   -----------  ------ ------ -----  --- ---- ---
2020 07 02 22  00 49 26.313   -72 28 43.26  .01820 1.0236 111.8 20.5 896' 161
2020 07 02 23  00 51 59.518   -72 29 59.87  .01829 1.0236 111.6 20.5 899' 161
2020 07 03 00  00 54 31.473   -72 31 08.44  .01839 1.0236 111.4 20.5 902' 160
2020 07 03 01  00 57 02.156   -72 32 09.18  .01848 1.0235 111.3 20.5 904' 160
2020 07 03 02  00 59 31.546   -72 33 02.31  .01858 1.0235 111.1 20.6 907' 159
2020 07 03 03  01 01 59.625   -72 33 48.03  .01867 1.0235 110.9 20.6 910' 159
2020 07 03 04  01 04 26.378   -72 34 26.54  .01877 1.0235 110.7 20.6 912' 158
2020 07 03 05  01 06 51.787   -72 34 58.04  .01886 1.0235 110.6 20.6 915' 158
2020 07 03 06  01 09 15.841   -72 35 22.73  .01896 1.0235 110.4 20.6 918' 158
2020 07 03 07  01 11 38.526   -72 35 40.80  .01905 1.0234 110.2 20.6 921' 157
2020 07 03 08  01 13 59.831   -72 35 52.45  .01915 1.0234 110.1 20.7 924' 157
2020 07 03 09  01 16 19.748   -72 35 57.86  .01925 1.0234 109.9 20.7 927' 156
2020 07 03 10  01 18 38.268   -72 35 57.22  .01934 1.0234 109.8 20.7 930' 156
2020 07 03 11  01 20 55.383   -72 35 50.71  .01944 1.0234 109.6 20.7 933' 156
2020 07 03 12  01 23 11.090   -72 35 38.50  .01954 1.0234 109.5 20.7 936' 155
2020 07 03 13  01 25 25.382   -72 35 20.77  .01963 1.0233 109.3 20.7 939' 155
2020 07 03 14  01 27 38.257   -72 34 57.69  .01973 1.0233 109.1 20.7 942' 155
2020 07 03 15  01 29 49.713   -72 34 29.43  .01983 1.0233 109.0 20.8 946' 154
2020 07 03 16  01 31 59.749   -72 33 56.15  .01992 1.0233 108.8 20.8 949' 154
2020 07 03 17  01 34 08.364   -72 33 18.02  .02002 1.0233 108.7 20.8 952' 154
2020 07 03 18  01 36 15.560   -72 32 35.18  .02012 1.0233 108.6 20.8 955' 154
2020 07 03 19  01 38 21.339   -72 31 47.80  .02022 1.0233 108.4 20.8 958' 153
2020 07 03 20  01 40 25.704   -72 30 56.02  .02031 1.0232 108.3 20.8 962' 153
2020 07 03 21  01 42 28.658   -72 30 00.00  .02041 1.0232 108.1 20.8 965' 153
2020 07 03 22  01 44 30.206   -72 28 59.86  .02051 1.0232 108.0 20.9 968' 153
2020 07 03 23  01 46 30.353   -72 27 55.77  .02061 1.0232 107.8 20.9 972' 152
2020 07 04 00  01 48 29.106   -72 26 47.84  .02071 1.0232 107.7 20.9 975' 152
2020 07 04 01  01 50 26.470   -72 25 36.22  .02081 1.0232 107.6 20.9 978' 152
2020 07 04 02  01 52 22.455   -72 24 21.03  .02090 1.0232 107.4 20.9 982' 152
2020 07 04 03  01 54 17.066   -72 23 02.41  .02100 1.0231 107.3 20.9 985' 151
2020 07 04 04  01 56 10.314   -72 21 40.47  .02110 1.0231 107.2 21.0 989' 151
2020 07 04 05  01 58 02.208   -72 20 15.35  .02120 1.0231 107.0 21.0 992' 151
2020 07 04 06  01 59 52.756   -72 18 47.14  .02130 1.0231 106.9 21.0 995' 151
2020 07 04 07  02 01 41.969   -72 17 15.98  .02140 1.0231 106.8 21.0 999' 151
2020 07 04 08  02 03 29.858   -72 15 41.97  .02150 1.0231 106.6 21.0  17d 151
2020 07 04 09  02 05 16.433   -72 14 05.22  .02160 1.0230 106.5 21.0  17d 150
2020 07 04 10  02 07 01.706   -72 12 25.83  .02170 1.0230 106.4 21.0  17d 150
2020 07 04 11  02 08 45.689   -72 10 43.91  .02180 1.0230 106.3 21.0  17d 150
2020 07 04 12  02 10 28.393   -72 08 59.56  .02190 1.0230 106.2 21.1  17d 150
2020 07 04 13  02 12 09.831   -72 07 12.88  .02200 1.0230 106.0 21.1  17d 150
2020 07 04 14  02 13 50.015   -72 05 23.96  .02210 1.0230 105.9 21.1  17d 150
2020 07 04 15  02 15 28.957   -72 03 32.89  .02220 1.0230 105.8 21.1  17d 150
2020 07 04 16  02 17 06.672   -72 01 39.76  .02230 1.0229 105.7 21.1  17d 149
2020 07 04 17  02 18 43.171   -71 59 44.66  .02240 1.0229 105.6 21.1  17d 149
2020 07 04 18  02 20 18.468   -71 57 47.67  .02250 1.0229 105.4 21.1  17d 149
2020 07 04 19  02 21 52.577   -71 55 48.87  .02260 1.0229 105.3 21.2  17d 149
2020 07 04 20  02 23 25.511   -71 53 48.35  .02270 1.0229 105.2 21.2  17d 149
2020 07 04 21  02 24 57.283   -71 51 46.18  .02280 1.0229 105.1 21.2  17d 149